Location: Northcutt
(34.7304°N, 84.4305°W)
Time: 04:28:12
(UTC+00:00)

Vanguard 2 - Pass Details

Date: 09 October 2022
Orbit: 553 x 2933 km, 32.9° (Epoch: 05 December)

Event Time Altitude Azimuth Distance (km) Brightness Sun altitude
Rises 22:48:31 0° 282° (WNW) 5,722 13.5 3.7°
Reaches altitude 10° 22:52:13 10° 275° (W) 4,990 13.5 2.9°
Maximum altitude 23:05:59 41° 213° (SSW) 3,692 11.5 0.1°
Drops below altitude 10° 23:21:49 10° 151° (SSE) 5,657 11.7 -3.1°
Sets 23:26:24 0° 144° (SE) 6,524 12.0 -4.0°
